DELTA 1 DEB, 21599

Orbit data source: Space-Track

DELTA 1 DEB, 21599 is space debris in SSO originally from a launch on Thu, 12 Jun 1975 UTC launched from the Air Force Western Test Range (AFWTR). Debris objects in space refer to the collection of defunct objects orbiting the Earth. Examples of debris include non-operational satellites, rocket bodies, and fragments generated from explosions, collisions, or faulty payload assembly.

Loading next visibility...
Identifier
21599, 1975-052HT
Orbit
SSO
Country
Flag of USUS
Related business
Manufacturer
Unknown
Mission
Spacecraft
Bus & Motor
Unknown
Mass
Unknown
Launch date (UTC)
1975-06-12 (51 years ago)
Launch vehicle
Unknown
Launch site
Air Force Western Test Range (AFWTR)
Object type
Payload
Rocket body
Debris
Shape & HBR
Unknown shape, 0.1 m
Radar Cross Section
Small (<0.1 m²)

Expand to show TLE details & history
Last TLE update: 1 week ago

TLE from 1 week ago
0 DELTA 1 DEB
1 21599U 75052HT  26164.95876375  .00001336  00000-0  45841-2 0  9991
2 21599  99.8290  64.0527 0426061 163.5515 217.7611 12.73000809618903
Epoch: 2026-06-13T23:00Z
TLE epoch observation values (Epoch: 2026-06-13T23:00:37.188Z)
Latitude
18.15802°
Longitude
173.38956°
Altitude
1,637.928 km
Speed
6.932 km/s
True Right ascension
04h 03m 14s
True Declination
18° 04' 03"
Sunlit
Object was in daylight at epoch
Visualization orbit readout
Latitude
Unknown
Longitude
Unknown
Altitude
Unknown
Speed
Unknown
Apparent Right ascension
Unknown
Apparent Declination
Unknown
Sunlit
N/A
Visualization observer readout
Local Sidereal Time
00:56:42
Azimuth
Unknown
Elevation
Unknown
Doppler factor
Unknown
Orbital elements
Apogee altitude
1,697.141 km
Perigee altitude
1,037.148 km
Semi-major axis
7,745.282 km
Eccentricity
0.04261
Inclination
99.829°
RAAN
64.0527°
Arg. of periapsis
163.5515°
True anomaly
214.89349°
Mean anomaly
217.7611°
Eccentric anomaly
216.31538°
Mean motion
3.1841 °/min
Orbital period
113.06 mins
BSTAR
0.0045841
Loading maneuver chart data...
Computing Atmospheric mass density...

Documentation

Showing up to 5 results
|